Regional Weather Roundup
Issued by NWS

Home | Current Version | Previous Version | Text Only | Print | Product List | Glossary On
Versions: 1 2 3 4 5 6 7 8 9 10 11 12 13 14 15 16 17 18 19 20 21 22 23 24 25 26 27 28 29 30 31 32 33 34 35 36 37 38 39 40 41 42 43 44 45 46 47 48 49 50
000
ASUS43 KMPX 221401
RWRMN
WEATHER ROUNDUP FOR MINNESOTA
NATIONAL WEATHER SERVICE TWIN CITIES/CHANHASSEN MN
800 AM CST WED FEB 22 2017


NOTE: "FAIR" INDICATES FEW OR NO CLOUDS BELOW 12,000 FEET WITH NO
SIGNIFICANT WEATHER AND/OR OBSTRUCTIONS TO VISIBILITY. N/A MEANS
CURRENT SKY AND/OR WEATHER CONDITIONS ARE NOT AVAILABLE.

MNZ060>063-068>070-221500-
   Twin Cities Metro

CITY           SKY/WX    TMP DP  RH WIND       PRES   REMARKS
TWIN CITIES    MOCLDY    41  38  89 NE3       29.59F
ST PAUL        FAIR      38  38 100 CALM      29.60F
CRYSTAL        FOG       39  37  92 CALM      29.59S VSB<1/4
BLAINE         FOG       37  37 100 SE5       29.60S VSB 0
LAKEVILLE      FAIR      36  36 100 CALM      29.59R
EDEN PRAIRIE   FAIR      41  41 100 CALM      29.58F
SOUTH ST PAUL  FAIR      38  38  99 CALM      29.59F
LAKE ELMO      FOG       37  37 100 CALM      29.61F VSB 1/2
$$
MNZ001>005-007-008-013>017-022>024-027-028-221500-
   Northwest Minnesota

CITY           SKY/WX    TMP DP  RH WIND       PRES   REMARKS
BEMIDJI        CLOUDY    34  34 100 N5        29.64F FOG     WCI  29
HALLOCK        LGT SNOW  34  32  93 N15       29.74S WCI  24
ROSEAU         LGT SNOW  34  28  80 N10       29.72F WCI  26
WARROAD        LGT SNOW  34  28  80 N8        29.73F WCI  27
THIEF RVR FALL FAIR      33  32  96 NE13      29.70R WCI  24
CROOKSTON      CLOUDY    34  34 100 NE7       29.69R FOG     WCI  28
FOSSTON        FOG       32  32 100 NE5       29.67R VSB 1   WCI  27
DETROIT LAKES  MOCLDY    34  34 100 NW3       29.64S FOG
MOORHEAD       FOG       32  30  93 N10       29.68R VSB 1/2 WCI  24
PARK RAPIDS    MOCLDY    35  31  85 CALM      29.62F FOG
MAHNOMEN       FOG       32  32  99 N7        29.64S VSB<1/4 WCI  26
$$
MNZ006-009>011-018-025>026-221500-
   North Central Minnesota

CITY           SKY/WX    TMP DP  RH WIND       PRES   REMARKS
BAUDETTE       LGT SNOW  32  31  96 N7        29.70F FOG     WCI  26
FLAG ISLAND    LGT SNOW  32  30  93 NW10      29.74R WCI  24
INTL FALLS     CLOUDY    33  30  88 N5        29.69S WCI  29
WASKISH        CLOUDY    34  32  93 NE5       29.68F WCI  30
BIG FORK       LGT RAIN  34  32  93 N5        29.66S WCI  30
LONGVILLE      MOCLDY    34  34 100 CALM      29.64F FOG
GRAND RAPIDS   MOCLDY    35  34  96 N5        29.66R WCI  31
CRANE LAKE     LGT SNOW  30  30 100 CALM      29.71R
ORR            DRIZZLE   34  30  86 CALM      29.65R
COOK           CLOUDY    34  32  93 CALM      29.67R
WALKER         FOG       34  34  99 N3        29.63F VSB 1/4
$$
MNZ012-019>021-037-221500-
   Northeast Minnesota

CITY           SKY/WX    TMP DP  RH WIND       PRES   REMARKS
DULUTH         CLOUDY    37  35  92 CALM      29.63R
ELY            MOCLDY    32  32 100 N3        29.64F
HIBBING        CLOUDY    33  33 100 NW7       29.65R WCI  27
EVELETH        FAIR      32  32  99 CALM      29.65R FOG
DULUTH HARBOR  CLOUDY    34  34 100 CALM      29.65R FOG
TWO HARBORS    MOCLDY    39  36  87 CALM      29.62R
SILVER BAY     FAIR      36  34  93 CALM      29.61F
GRAND MARAIS     N/A     37  34  89 CALM      29.65R
G MARAIS ARPRT CLOUDY    34  28  80 N9        29.63R WCI  26
$$
MNZ029>031-032-039>041-046>048-054>057-064-221500-
   West Central Minnesota

CITY           SKY/WX    TMP DP  RH WIND       PRES   REMARKS
FERGUS FALLS   FAIR      34  34 100 S5        29.67F WCI  30
WHEATON        FOG       34  34 100 NW6       29.65F VSB 1/4 WCI  29
MORRIS         FAIR      36  36 100 N3        29.62S
ALEXANDRIA     FAIR      36  35  96 NE6       29.63S
ELBOW LAKE     FAIR      34  33  99 CALM      29.63F
WADENA         FAIR      34  34 100 CALM      29.63R
GLENWOOD       FAIR      36  36 100 N9        29.62S FOG
APPLETON       FAIR      36  34  93 N5        29.62R
BENSON         FAIR      36  32  87 N3        29.64S
ORTONVILLE     FAIR      36  34  93 CALM      29.64R
MADISON        FAIR      39  39 100 NW13      29.63R
WILLMAR        FAIR      39  37  93 CALM      29.63R
$$
MNZ033>034-036-042>043-049>051-058-059-221500-
   Central Minnesota

CITY           SKY/WX    TMP DP  RH WIND       PRES   REMARKS
ST CLOUD       FAIR      34  34 100 N5        29.62R FOG     WCI  30
SAUK CENTRE    FAIR      34  34 100 NW6       29.63R FOG     WCI  29
PAYNESVILLE    CLOUDY    35  35 100 CALM      29.61S FOG
AITKIN         FAIR      36  34  93 N5        29.63R
PINE RIVER     FAIR      32  32 100 CALM      29.68S FOG
BRAINERD       FAIR      34  33  96 N5        29.64R FOG     WCI  30
STAPLES        FAIR      34  34 100 CALM      29.65R
LONG PRAIRIE   FOG       34  34 100 NW6       29.63F VSB 1   WCI  29
LITTLE FALLS   FAIR      36  34  93 N3        29.63S FOG
LITCHFIELD     FAIR      37  37 100 CALM      29.61R
BUFFALO        MOCLDY    37  37  97 CALM      29.62R FOG
MAPLE LAKE     CLOUDY    38  38 100 CALM      29.62R FOG
HUTCHINSON     MOCLDY    36  36 100 CALM      29.61F FOG
$$
MNZ037-044-045-052-053-221500-
   East Central Minnesota

CITY           SKY/WX    TMP DP  RH WIND       PRES   REMARKS
PRINCETON      MOCLDY    36  34  93 NW3       29.61R FOG
MORA           FAIR      34  32  93 CALM      29.63R FOG
CAMBRIDGE      FOG       37  37 100 CALM      29.59R VSB 1/2
RUSH CITY      FOG       36  34  93 CALM      29.61S VSB<1/4
MOOSE LAKE     FAIR      32  32 100 CALM      29.60F FOG
HINCKLEY       FAIR      37  37 100 N6        29.62R
CLOQUET        CLOUDY    36  36 100 CALM      29.63R FOG
MCGREGOR       FAIR      34  32  93 N6        29.64R WCI  29
$$
MNZ071>073-080-081-089-090-097-098-221500-
   Southwest Minnesota

CITY           SKY/WX    TMP DP  RH WIND       PRES   REMARKS
MONTEVIDEO     FAIR      39  39 100 N10       29.63R
GRANITE FALLS  CLOUDY    39  38  97 SW5       29.62R FOG
CANBY          MOCLDY    46  42  85 CALM      29.59F
MARSHALL       FAIR      41  39  93 NW6       29.62R
REDWOOD FALLS  MOCLDY    39  36  89 NW5       29.61R
OLIVIA         FAIR      39  37  93 CALM      29.61R FOG
PIPESTONE      FAIR      45  34  65 NW8       29.61S
WINDOM         FAIR      41  34  75 SW10      29.61R
WORTHINGTON    FAIR      39  33  79 SW16      29.63R
JACKSON        FAIR      41  32  70 SW12      29.62R
TRACY          MOCLDY    44  40  88 NW6       29.61R
SLAYTON        FAIR      40  35  83 W12       29.62R
$$
MNZ065>067-074>077-082>085-091>093-221500-
   South Central Minnesota

CITY           SKY/WX    TMP DP  RH WIND       PRES   REMARKS
NEW ULM        FAIR      37  36  93 CALM      29.59R
ST JAMES       FAIR      36  34  93 CALM      29.61R
FAIRMONT       FAIR      43  35  73 SW16      29.59S
GLENCOE        FAIR      37  37 100 CALM      29.59R FOG
FARIBAULT      FAIR      39  36  87 CALM      29.59S
OWATONNA       FAIR      39  36  87 SE7       29.58F
WASECA         FAIR      39  36  87 S8        29.60R
ALBERT LEA     FAIR      43  36  75 S6        29.59S
$$
MNZ078>079-086>088-094>096-221500-
   Southeast Minnesota

CITY           SKY/WX    TMP DP  RH WIND       PRES   REMARKS
ROCHESTER      FAIR      39  35  86 S9        29.59F
RED WING       FAIR      37  34  87 CALM      29.60S
STANTON        FAIR      38  35  88 CALM      29.58S
DODGE CENTER   FAIR      39  36  87 S5        29.58S
WINONA         FAIR      45  36  70 CALM      29.62F
AUSTIN         FAIR      39  34  81 S8        29.60S
PRESTON        FAIR      40  33  76 S12       29.62S
$$
ABBREVIATIONS USED IN REMARKS
   TC - TEMPERATURES IN CELSIUS
  WCI - WIND CHILL INDEX
   HX - HEAT INDEX
  VSB - VISIBILITY
$$



USA.gov is the U.S. government's official web portal to all federal, state and local government web resources and services.